If you wish to contribute or participate in the discussions about articles you are invited to join SKYbrary as a registered user

 Actions

Hunter Army Airfield

From SKYbrary Wiki

KSVN
Airport
ICAO: KSVN – IATA: SVN
Summary
Name Hunter Army Airfield
Region North America
Territory United States US.gif
Location Savannah, Georgia
Serving Savannah
Elevation 12.802 m
42 ft
42 ft12.802 m
Coordinates 32° 0' 40.58" N, 81° 8' 47.29" W
Runways
Designator Length Width Surface ROPS
10/28 3467 m11,374.672 ft
61 m200.131 ft
ASP yes/yes


METAR
Observation KSVN 221056Z AUTO 00000KT 10SM CLR 19/17 A3018 RMK AO2 SLP223 T01870172 $
Station Hunter U. S. Army Airfield
Date/Time 22 September 2019 10:56:00
Wind direction
Wind speed 00 kts
Lowest cloud amount n/a
Temperature 18.7°C
Dew point 17.2°C
Humidity 91%
QNH hPa
Weather condition n/a

WX
Tag(s) Cumulonimbus
Tropical Revolving Storm

Hunter Army Airfield/Savannah

ICAO: KSVN IATA: SVN

Description

Hunter Army Airfield, located in Savannah, Georgia, United States, is a military airfield and subordinate installation to Fort Stewart located in Hinesville, Georgia.

Climatology

Humid “subtropical” climate (Köppen climate classification Cfa) - characterized by hot, humid summers and cool winters. Significant amounts of precipitation occur in all seasons in most areas.

Maps

Terrain

Loading map...

Airport Layout

Loading map...


Accidents & Serious Incidents at or in vicinity of KSVN

None on SKYbrary